Weather in Gory

Russia / Saint-Petersburg and Leningrad Oblast     59°45′21″N   30°58′11″E
temp.,
°C
wind,
m/s
gust,
m/s
humid.,
%
clouds,
%
prec.,
mm/h
press.,
hPa
HPBL,
m
21 april, wed
wed2100:00+5ese3970100 0.0 1016255
03:00+4ese2879100 0.0 1014248
06:00+4e2583100 0.0 1011328
09:00+4ne2496100 1.0 1008618
12:00+3n3597100 1.3 1005466
15:00+2nnw2499100 2.8 1003183
18:00+2nw2399100 0.6 1003166
21:00+2wsw2499100 0.8 1003176
22 april, thu
thu2200:00+2ssw2498100 0.1 1003238
03:00+2s2498100 0.1 1003127
06:00+1sse2498100 0.0 100391
09:00+6s25839 0.0 1003394
12:00+11sw365121 0.0 10041234
15:00+13sw4745100 0.0 10052197
18:00+12ssw255460 0.0 1005676
21:00+7sse237999 0.1 100553
23 april, fri
fri2300:00+7s3891100 2.6 1004515
03:00+5s3792100 2.7 1005316
06:00+3s3893100 0.0 1005308
09:00+6s477599 0.0 1005831
12:00+8s5856100 0.0 10061847
15:00+9ssw594996 0.3 10062002
18:00+8ssw474910 0.1 10071872
21:00+4s38735 0.1 1008280
24 april, sat
sat2400:00+2sse39865 0.0 1008314
03:000s279538 0.0 1007214
06:00−1s269610 0.0 1007157
09:00+4ssw236046 0.0 1007992
12:00+7ssw234490 0.0 10061709
15:00+8wsw324798 0.1 10061577
18:00+6wnw115995 1.2 1005896
21:00+2nne118992 2.2 100520
25 april, sun
sun2500:00+1nnw119395 0.6 100517
03:000wnw11956 0.7 100410
06:00−1w12935 0.0 100457
09:00+4w12705 0.0 1004541
12:00+7wsw125392 0.1 10041585
15:00+8wnw224699 0.4 10051604
18:00+7nw2358100 0.4 10051096
21:00+2wnw3679100 0.6 1007220